User: anonymous
Location: Mentone
(34.5413°N, 85.5351°W)
Time: 20:34:39
(UTC-05:00)
Language:

SL-8 R/B - Orbit

View from above orbital plane
View from above orbital plane
View from above satellite
View from above satellite

Ground track
Ground track

The orbit data is extracted from the following two-line orbital elements,

1 33066U 08031G   14233.55588758 -.00000016  00000-0  30334-4 0  8628
2 33066 048.4422 249.4079 0007179 082.5320 058.9172 14.68846889331206
Epoch (UTC): 21 August 2014 13:20:28
Eccentricity: 0.0007179
inclination: 48.4422°
perigee height: 660 km
apogee height: 670 km
right ascension of ascending node: 249.4079°
argument of perigee: 82.5320°
revolutions per day: 14.68846889
mean anomaly at epoch: 58.9172°
orbit number at epoch: 33120

The dashed part of the orbit path shows where the satellite is in the earth's shadow,  

DLR